Location: Gleizolles
(44.4833°N, 6.7667°E)
Time: 13:21:27
(UTC+00:00)

deb Explorer IX - Pass Details

Date: 27 June 2024
Orbit: 510 x 878 km, 38.7° (Epoch: 21 July)

Event Time Altitude Azimuth Distance (km) Brightness Sun altitude
Rises 05:02:59 0° 210° (SSW) 2,610 ? 10.5°
Reaches altitude 10° 05:06:00 10° 184° (S) 1,757 ? 11.0°
Maximum altitude 05:08:10 14° 151° (SSE) 1,538 ? 11.4°
Drops below altitude 10° 05:10:25 10° 118° (ESE) 1,832 ? 11.8°
Sets 05:13:40 0° 94° (E) 2,803 ? 12.3°
